Location: Bidwell Hollow
(37.7387°N, 90.1707°W)
Time: 00:48:48
(UTC+00:00)

A-11 Canister half - All Passes

Search period start: 12 May 2026 00:00
Search period end: 22 May 2026 00:00
Orbit: 1523 x 1685 km, 47.3° (Epoch: 11 May)

Date Brightness Start Highest point End Pass type
(mag) Time Alt. Az. Time Alt. Az. Time Alt. Az.
12 May - 01:02:39 10° W 01:12:10 61° NNW 01:22:04 10° ENE daylight
12 May - 03:09:19 10° WNW 03:18:48 49° N 03:28:33 10° E visible
12 May - 05:15:03 10° WNW 05:25:07 78° NNE 05:35:19 10° ESE visible
12 May - 07:20:38 10° WNW 07:29:50 42° SW 07:39:05 10° SSE visible
12 May - 20:37:22 10° SSE 20:41:42 14° ESE 20:46:05 10° E daylight
12 May - 22:35:56 10° SW 22:45:07 59° SE 22:54:38 10° ENE daylight
13 May - 00:40:45 10° WSW 00:50:15 63° NNW 01:00:08 10° ENE daylight
13 May - 02:47:23 10° WNW 02:56:51 49° N 03:06:33 10° ENE visible
13 May - 04:53:11 10° WNW 05:03:11 75° NNE 05:13:23 10° ESE visible
13 May - 06:58:41 10° WNW 07:08:00 44° SW 07:17:23 10° SSE visible
13 May - 20:16:20 10° SE 20:19:57 13° ESE 20:23:35 10° E daylight
13 May - 22:14:11 10° SSW 22:23:18 56° SE 22:32:43 10° ENE daylight
14 May - 00:18:50 10° WSW 00:28:20 64° NNW 00:38:14 10° ENE daylight
14 May - 02:25:28 10° WNW 02:34:53 49° N 02:44:35 10° ENE visible
14 May - 04:31:19 10° WNW 04:41:17 73° NNE 04:51:27 10° ESE visible
14 May - 06:36:46 10° WNW 06:46:10 47° SW 06:55:40 10° SSE visible
14 May - 19:55:34 10° SE 19:58:12 11° ESE 20:00:50 10° ESE daylight
14 May - 21:52:28 10° SSW 22:01:29 53° SE 22:10:48 10° ENE daylight
14 May - 23:56:57 10° WSW 00:06:26 66° NNW 00:16:18 10° ENE daylight
15 May - 02:03:33 10° WNW 02:12:56 49° N 02:22:36 10° ENE visible
15 May - 04:09:26 10° WNW 04:19:22 71° NNE 04:29:31 10° ESE visible
15 May - 06:14:50 10° WNW 06:24:19 49° SW 06:33:55 10° SSE visible
15 May - 08:26:16 10° WSW 08:27:43 10° WSW 08:29:10 10° SW visible
15 May - 19:35:48 10° SE 19:36:27 10° ESE 19:37:06 10° ESE daylight
15 May - 21:30:45 10° SSW 21:39:40 50° SE 21:48:51 10° ENE daylight
15 May - 23:35:03 10° WSW 23:44:32 68° NNW 23:54:23 10° ENE daylight
16 May - 01:41:38 10° WNW 01:50:58 49° N 02:00:37 10° ENE visible
16 May - 03:47:33 10° WNW 03:57:27 69° NNE 04:07:34 10° ESE visible
16 May - 05:52:55 10° WNW 06:02:29 52° SW 06:12:10 10° SSE visible
16 May - 08:02:56 10° WSW 08:05:56 12° WSW 08:08:57 10° SW visible
16 May - 21:09:03 10° SSW 21:17:51 47° SE 21:26:56 10° ENE daylight
16 May - 23:13:10 10° WSW 23:22:38 70° NNW 23:32:29 10° ENE daylight
17 May - 01:19:43 10° WNW 01:29:01 48° N 01:38:38 10° ENE visible
17 May - 03:25:41 10° WNW 03:35:31 67° NNE 03:45:37 10° ESE visible
17 May - 05:31:01 10° WNW 05:40:38 54° SW 05:50:24 10° SSE visible
17 May - 07:40:14 10° W 07:44:10 13° WSW 07:48:06 10° SW visible
17 May - 20:47:22 10° SSW 20:56:03 45° SE 21:04:59 10° ENE daylight
17 May - 22:51:17 10° WSW 23:00:44 72° NNW 23:10:34 10° ENE daylight
18 May - 00:57:47 10° WNW 01:07:04 49° N 01:16:39 10° ENE daylight
18 May - 03:03:48 10° WNW 03:13:36 65° NNE 03:23:39 10° ESE visible
18 May - 05:09:07 10° WNW 05:18:47 57° SW 05:28:36 10° SSE visible
18 May - 07:17:44 10° W 07:22:22 14° WSW 07:27:03 10° SSW visible
18 May - 20:25:42 10° SSW 20:34:15 42° SE 20:43:02 10° ENE daylight
18 May - 22:29:24 10° WSW 22:38:51 75° NNW 22:48:40 10° ENE daylight
19 May - 00:35:52 10° WNW 00:45:07 49° N 00:54:41 10° ENE daylight
19 May - 02:41:56 10° WNW 02:51:41 63° NNE 03:01:41 10° ESE visible
19 May - 04:47:13 10° WNW 04:56:56 60° SW 05:06:49 10° SE visible
19 May - 06:55:22 10° W 07:00:35 15° WSW 07:05:52 10° SSW visible
19 May - 20:04:02 10° SSW 20:12:28 40° SE 20:21:06 10° ENE daylight
19 May - 22:07:32 10° WSW 22:16:58 77° NNW 22:26:46 10° ENE daylight
20 May - 00:13:56 10° WNW 00:23:10 49° N 00:32:43 10° ENE daylight
20 May - 02:20:04 10° WNW 02:29:45 61° NNE 02:39:43 10° E visible
20 May - 04:25:20 10° WNW 04:35:04 63° SW 04:45:01 10° SE visible
20 May - 06:33:05 10° W 06:38:48 17° WSW 06:44:34 10° SSW visible
20 May - 19:42:24 10° SSW 19:50:40 37° SE 19:59:08 10° ENE daylight
20 May - 21:45:41 10° WSW 21:55:06 80° NNW 22:04:52 10° ENE daylight
20 May - 23:52:01 10° W 00:01:13 49° N 00:10:45 10° ENE daylight
21 May - 01:58:11 10° WNW 02:07:49 60° NNE 02:17:45 10° E visible
21 May - 04:03:27 10° WNW 04:13:13 66° SW 04:23:12 10° SE visible
21 May - 06:10:52 10° W 06:17:00 18° SW 06:23:13 10° SSW visible
21 May - 19:20:45 10° SSW 19:28:53 35° SE 19:37:11 10° ENE daylight
21 May - 21:23:49 10° WSW 21:33:13 82° NNW 21:42:58 10° ENE daylight
21 May - 23:30:06 10° W 23:39:16 49° N 23:48:47 10° ENE daylight
